Location: Natural Bridges National Monument
(37.6093°N, 109.9767°W)
Time: 04:03:22
(UTC-06:00)

Cosmos 1727 Rocket - Visible Passes

Search period start: 28 May 2015 00:00
Search period end: 07 June 2015 00:00
Orbit: 962 x 996 km, 82.9° (Epoch: 26 May)

Date Brightness Start Highest point End Pass type
(mag) Time Alt. Az. Time Alt. Az. Time Alt. Az.
28 May 4.7 00:57:49 10° NNW 01:03:33 42° W 01:03:33 42° W visible
28 May 4.3 23:38:38 10° N 23:44:42 50° ENE 23:45:08 49° E visible
29 May 5.6 01:25:05 10° NW 01:29:48 22° W 01:29:52 22° W visible
29 May 5.9 22:22:26 10° NE 22:24:38 12° ENE 22:26:43 11° E visible
30 May 3.8 00:04:51 10° N 00:11:09 88° W 00:11:27 82° S visible
30 May 6.2 01:54:28 10° WNW 01:55:47 10° W 01:56:11 10° W visible
30 May 5.3 22:46:48 10° NNE 22:51:38 24° ENE 22:53:03 22° E visible
31 May 4.5 00:31:27 10° NNW 00:37:25 46° W 00:37:47 46° WSW visible
31 May 4.4 23:12:26 10° N 23:18:22 44° ENE 23:19:24 41° ESE visible
01 Jun 5.4 00:58:36 10° NNW 01:03:33 24° W 01:04:08 24° W visible
01 Jun 6.0 21:57:05 10° NE 21:58:13 11° ENE 21:59:49 10° ENE visible
01 Jun 3.8 23:38:34 10° N 23:44:51 84° E 23:45:45 67° SSE visible
02 Jun 6.2 01:27:07 10° WNW 01:29:34 12° W 01:30:29 11° W visible
02 Jun 5.4 22:20:43 10° NNE 22:25:16 21° ENE 22:27:23 18° E visible
03 Jun 4.4 00:05:07 10° NNW 00:11:09 52° W 00:12:07 47° WSW visible
03 Jun 4.6 22:46:14 10° N 22:52:02 40° ENE 22:53:46 33° ESE visible
04 Jun 5.3 00:32:08 10° NNW 00:37:19 27° W 00:38:30 25° WSW visible
04 Jun 3.9 23:12:18 10° N 23:18:34 76° E 23:20:10 51° SSE visible
05 Jun 6.1 01:00:14 10° NW 01:03:21 14° W 01:04:55 12° W visible
05 Jun 5.5 21:54:41 10° NNE 21:58:52 19° ENE 22:01:51 14° ESE visible
05 Jun 4.3 23:38:46 10° NNW 23:44:53 58° W 23:46:35 44° SW visible
06 Jun 4.7 22:20:04 10° N 22:25:41 36° ENE 22:28:16 26° ESE visible
